TimeCDT,TemperatureF,Dew PointF,Humidity,Sea Level PressureIn,VisibilityMPH,Wind Direction,Wind SpeedMPH,Gust SpeedMPH,PrecipitationIn,Events,Conditions,WindDirDegrees,DateUTC
12:15 AM,33.8,33.8,100,29.99,0.2,Calm,Calm,-,N/A,Fog,Fog,0,2013-04-09 05:15:00
12:35 AM,33.8,33.8,100,30.01,0.2,Calm,Calm,-,N/A,Fog,Fog,0,2013-04-09 05:35:00
12:55 AM,33.8,33.8,100,30.00,0.5,Calm,Calm,-,N/A,Fog,Fog,0,2013-04-09 05:55:00
1:15 AM,33.8,33.8,100,30.02,0.5,Calm,Calm,-,N/A,Fog,Fog,0,2013-04-09 06:15:00
1:35 AM,33.8,33.8,100,30.02,0.5,Calm,Calm,-,N/A,Fog,Fog,0,2013-04-09 06:35:00
1:55 AM,33.8,33.8,100,30.01,0.5,Calm,Calm,-,N/A,Fog,Fog,0,2013-04-09 06:55:00
2:15 AM,33.8,33.8,100,30.00,0.5,Calm,Calm,-,N/A,Fog,Fog,0,2013-04-09 07:15:00
2:35 AM,33.8,33.8,100,30.01,0.5,WNW,3.5,-,N/A,Fog,Fog,300,2013-04-09 07:35:00
2:55 AM,33.8,33.8,100,30.01,0.5,Calm,Calm,-,N/A,Fog,Fog,0,2013-04-09 07:55:00
3:15 AM,33.8,33.8,100,30.00,0.5,North,3.5,-,N/A,Fog,Fog,350,2013-04-09 08:15:00
3:35 AM,33.8,33.8,100,29.99,0.8,North,3.5,-,N/A,,Overcast,360,2013-04-09 08:35:00
3:55 AM,33.8,33.8,100,29.99,0.5,North,3.5,-,N/A,Fog,Fog,10,2013-04-09 08:55:00
4:15 AM,33.8,33.8,100,29.99,0.5,North,3.5,-,N/A,Fog,Fog,10,2013-04-09 09:15:00
4:35 AM,33.8,33.8,100,30.01,1.2,Calm,Calm,-,N/A,,Overcast,0,2013-04-09 09:35:00
4:55 AM,33.8,33.8,100,30.01,10.0,North,3.5,-,N/A,,Overcast,10,2013-04-09 09:55:00
5:15 AM,33.8,33.8,100,30.04,10.0,North,3.5,-,N/A,,Overcast,350,2013-04-09 10:15:00
5:35 AM,33.8,33.8,100,30.05,10.0,Calm,Calm,-,N/A,,Overcast,0,2013-04-09 10:35:00
5:55 AM,33.8,33.8,100,30.04,10.0,Calm,Calm,-,N/A,,Overcast,0,2013-04-09 10:55:00
6:15 AM,33.8,33.8,100,30.04,5.0,North,3.5,-,N/A,,Overcast,350,2013-04-09 11:15:00
6:35 AM,32.0,32.0,100,30.04,4.0,NNE,4.6,-,N/A,,Overcast,20,2013-04-09 11:35:00
6:55 AM,32.0,32.0,100,30.04,1.2,NNE,5.8,-,N/A,,Overcast,20,2013-04-09 11:55:00
7:15 AM,32.0,32.0,100,30.05,5.0,North,4.6,-,N/A,,Overcast,10,2013-04-09 12:15:00
7:35 AM,32.0,32.0,100,30.05,5.0,North,3.5,-,N/A,,Overcast,360,2013-04-09 12:35:00
7:55 AM,32.0,32.0,100,30.05,10.0,North,4.6,-,N/A,,Overcast,10,2013-04-09 12:55:00
8:15 AM,33.8,33.8,100,30.04,10.0,North,6.9,-,N/A,,Overcast,10,2013-04-09 13:15:00
8:35 AM,33.8,33.8,100,30.04,10.0,North,4.6,-,N/A,,Overcast,10,2013-04-09 13:35:00
8:55 AM,33.8,33.8,100,30.05,10.0,NNE,6.9,-,N/A,,Overcast,20,2013-04-09 13:55:00
9:15 AM,33.8,33.8,100,30.05,10.0,NNE,8.1,-,N/A,,Overcast,30,2013-04-09 14:15:00
9:35 AM,33.8,33.8,100,30.06,10.0,NNE,10.4,-,N/A,,Overcast,30,2013-04-09 14:35:00
9:55 AM,33.8,33.8,100,30.06,10.0,NE,8.1,-,N/A,,Overcast,40,2013-04-09 14:55:00
10:15 AM,33.8,33.8,100,30.06,10.0,NNE,8.1,-,N/A,,Overcast,20,2013-04-09 15:15:00
10:35 AM,33.8,33.8,100,30.06,10.0,NNE,10.4,-,N/A,,Overcast,30,2013-04-09 15:35:00
10:55 AM,33.8,33.8,100,30.06,10.0,NNE,11.5,-,N/A,,Overcast,20,2013-04-09 15:55:00
11:15 AM,33.8,33.8,100,30.04,10.0,NNE,13.8,18.4,N/A,,Overcast,20,2013-04-09 16:15:00
11:35 AM,33.8,33.8,100,30.05,10.0,NNE,12.7,17.3,N/A,,Overcast,20,2013-04-09 16:35:00
11:55 AM,33.8,33.8,100,30.05,10.0,NNE,12.7,17.3,N/A,,Overcast,30,2013-04-09 16:55:00
12:15 PM,33.8,33.8,100,30.06,10.0,NNE,12.7,-,N/A,,Overcast,30,2013-04-09 17:15:00
12:35 PM,33.8,33.8,100,30.06,10.0,NNE,10.4,-,N/A,,Overcast,20,2013-04-09 17:35:00
12:55 PM,33.8,32.0,93,30.06,7.0,NNE,15.0,-,N/A,,Light Drizzle,20,2013-04-09 17:55:00
1:15 PM,33.8,32.0,93,30.06,4.0,NNE,11.5,20.7,N/A,Snow,Light Snow,30,2013-04-09 18:15:00
1:35 PM,32.0,32.0,100,30.06,4.0,NE,11.5,-,N/A,Snow,Light Snow,40,2013-04-09 18:35:00
1:55 PM,33.8,32.0,93,30.07,5.0,NNE,10.4,-,N/A,Snow,Light Snow,30,2013-04-09 18:55:00
2:15 PM,33.8,32.0,93,30.08,7.0,NE,11.5,-,N/A,Rain,Rain,40,2013-04-09 19:15:00
3:15 PM,33.8,32.0,93,30.08,10.0,NE,8.1,-,N/A,,Light Drizzle,50,2013-04-09 20:15:00
3:35 PM,33.8,28.4,81,30.07,10.0,NE,15.0,20.7,N/A,,Overcast,50,2013-04-09 20:35:00
3:55 PM,33.8,28.4,81,30.08,10.0,NE,15.0,20.7,N/A,,Overcast,40,2013-04-09 20:55:00
4:15 PM,33.8,26.6,75,30.08,10.0,NE,17.3,21.9,N/A,,Overcast,40,2013-04-09 21:15:00
4:35 PM,33.8,26.6,75,30.09,10.0,NE,11.5,-,N/A,,Overcast,50,2013-04-09 21:35:00
4:55 PM,33.8,26.6,75,30.08,10.0,NE,16.1,21.9,N/A,,Overcast,40,2013-04-09 21:55:00
5:15 PM,33.8,23.0,65,30.09,10.0,NE,12.7,-,N/A,,Overcast,50,2013-04-09 22:15:00
5:35 PM,33.8,23.0,65,30.09,10.0,ENE,12.7,-,N/A,,Overcast,60,2013-04-09 22:35:00
5:55 PM,33.8,21.2,60,30.09,10.0,NE,12.7,20.7,N/A,,Overcast,50,2013-04-09 22:55:00
6:15 PM,33.8,19.4,56,30.10,10.0,NE,15.0,19.6,N/A,,Overcast,50,2013-04-09 23:15:00
6:35 PM,33.8,17.6,52,30.10,10.0,ENE,9.2,-,N/A,,Overcast,60,2013-04-09 23:35:00
6:55 PM,32.0,17.6,55,30.11,10.0,ENE,10.4,16.1,N/A,,Scattered Clouds,60,2013-04-09 23:55:00
7:15 PM,32.0,19.4,60,30.11,10.0,ENE,10.4,-,N/A,,Clear,60,2013-04-10 00:15:00
7:35 PM,32.0,19.4,60,30.11,10.0,NE,10.4,-,N/A,,Clear,40,2013-04-10 00:35:00
7:55 PM,32.0,21.2,64,30.13,10.0,NE,12.7,-,N/A,,Clear,40,2013-04-10 00:55:00
8:15 PM,32.0,21.2,64,30.14,10.0,NNE,8.1,-,N/A,,Scattered Clouds,30,2013-04-10 01:15:00
8:35 PM,32.0,21.2,64,30.15,10.0,NNE,6.9,-,N/A,,Mostly Cloudy,30,2013-04-10 01:35:00
8:55 PM,30.2,19.4,64,30.13,10.0,NE,11.5,-,N/A,,Mostly Cloudy,40,2013-04-10 01:55:00
9:15 PM,30.2,17.6,60,30.12,10.0,NNE,11.5,-,N/A,,Clear,30,2013-04-10 02:15:00
9:35 PM,30.2,17.6,60,30.12,10.0,NE,11.5,18.4,N/A,,Clear,50,2013-04-10 02:35:00
9:55 PM,30.2,19.4,64,30.11,10.0,NE,16.1,21.9,N/A,,Clear,50,2013-04-10 02:55:00
10:15 PM,28.4,19.4,69,30.12,10.0,ENE,12.7,18.4,N/A,,Clear,60,2013-04-10 03:15:00
10:35 PM,28.4,19.4,69,30.11,10.0,NE,6.9,-,N/A,,Clear,50,2013-04-10 03:35:00
10:55 PM,28.4,19.4,69,30.12,10.0,ENE,11.5,-,N/A,,Scattered Clouds,60,2013-04-10 03:55:00
11:15 PM,28.4,19.4,69,30.09,10.0,NE,13.8,20.7,N/A,,Scattered Clouds,50,2013-04-10 04:15:00
11:35 PM,28.4,19.4,69,30.09,10.0,ENE,12.7,20.7,N/A,,Clear,60,2013-04-10 04:35:00
11:55 PM,28.4,19.4,69,30.09,10.0,NE,12.7,18.4,N/A,,Clear,50,2013-04-10 04:55:00